Location: Ellerstadt
(49.4644°N, 8.2615°E)
Time: 00:29:04
(UTC+00:00)

ISS - Pass Details

Date: 19 May 2021
Orbit: 417 x 422 km, 51.6° (Epoch: 15 June)

Event Time Altitude Azimuth Distance (km) Brightness Sun altitude
Rises 20:04:25 0° 248° (WSW) 2,359 0.4 -7.8°
Reaches altitude 10° 20:06:30 10° 248° (WSW) 1,498 -0.6 -8.0°
Maximum altitude 20:09:52 85° 162° (SSE) 426 -3.8 -8.4°
Drops below altitude 10° 20:13:15 10° 72° (ENE) 1,506 -1.2 -8.8°
Sets 20:15:22 0° 72° (ENE) 2,373 -0.2 -9.0°
